FGRST (GLAST)

Last updated on Thu Dec 18 2025 00:02:41 GMT+0000 (Coordinated Universal Time)

1 33053U 08029A 25351.45562045 .00003573 00000+0 13534-3 0 9996 2 33053 25.5838 25.1914 0008168 346.5163 13.5156 15.22631475968099
UTC large
Height (km)
Speed (km/s)
/
Latitude / Longitude
Inclination (degrees)
Orbital Period (minutes)
Azimuth
Elevation
Range (km)
Doppler Factor

Next 0 passes for location: London (51.5072 / 0.1276)

Sorry there are no passes over London.